Wenatchee, WA
on Thursday, December 27, 2012

Thursday
Previous Day Next Day
Daily Summary
 ActualAverageRecord
Temperature
Mean Temperature °F 25°F  
Max Temperature 32°F 31°F 57°F (1980)
Min Temperature 25°F 19°F 0°F (1996)
Degree Days
Heating Degree Days 36 40  
Month to date heating degree days 878 1057  
Since 1 July heating degree days 2493 2939  
Cooling Degree Days 0 0  
Month to date cooling degree days 0 0  
Year to date cooling degree days 294 249  
Moisture
Dew Point 28°F   
Average Humidity 89    
Maximum Humidity 93    
Minimum Humidity 75    
Precipitation
Precipitation 0.02 in 0.09 in 0.85 in (1998)
Month to date precipitation 2.65 2.23  
Year to date precipitation 23.19 16.78  
Snow
Snow 0.30 in 0.70 in in ()
Month to date snowfall 22.6 14.5  
Since 1 July snowfall 29.8 22.4  
Snow Depth 6.00 in   
Wind
Wind Speed 0 mph   
Max Wind Speed 5 mph   
Max Gust Speed mph   
Visibility 5 miles   
Events Fog , Snow   

Key: T is trace of precipitation, MM is missing value
Source: NWS Daily Summary
Time(PST)TemperatureDew PointHumidity Pressure Visibility Wind DirectionWind SpeedGust SpeedPrecipitationEvents Conditions
12:31 AM 30.2°F 28.4°F 93% 29.94 in 7.0 miles Calm Calm - N/A   Overcast
12:55 AM 30.9°F 28.0°F 89% 29.98 in 8.0 miles Calm Calm - N/A   Overcast
1:55 AM 30.9°F 28.0°F 89% 30.00 in 9.0 miles Calm Calm - N/A   Overcast
2:55 AM 30.0°F 27.0°F 88% 30.01 in 6.0 miles West 3.5 mph - N/A   Overcast
3:03 AM 30.2°F 26.6°F 86% 29.97 in 5.0 miles Calm Calm - 0.00 in Snow Light Snow
3:45 AM 30.2°F 28.4°F 93% 29.98 in 2.0 miles Calm Calm - 0.00 in Snow Light Snow
3:55 AM 30.9°F 28.0°F 89% 30.02 in 2.5 miles Calm Calm - 0.00 in Snow Light Snow
4:37 AM 30.2°F 28.4°F 93% 29.98 in 2.5 miles Calm Calm - 0.00 in Snow Light Snow
4:55 AM 30.0°F 28.0°F 92% 30.02 in 2.0 miles Calm Calm - 0.00 in Snow Light Snow
5:26 AM 30.2°F 28.4°F 93% 29.99 in 3.0 miles Calm Calm - 0.00 in   Overcast
5:36 AM 30.2°F 28.4°F 93% 29.99 in 2.5 miles Calm Calm - 0.00 in   Overcast
5:51 AM 28.4°F 26.6°F 93% 29.99 in 1.0 miles Calm Calm - 0.00 in   Overcast
5:55 AM 28.9°F 27.0°F 92% 30.04 in 0.8 miles Calm Calm - 0.00 in   Overcast
6:03 AM 28.4°F 26.6°F 93% 30.00 in 0.5 miles Calm Calm - N/A Fog Light Freezing Fog
6:13 AM 28.4°F 26.6°F 93% 30.00 in 2.0 miles Calm Calm - N/A   Overcast
6:21 AM 30.2°F 28.4°F 93% 30.00 in 4.0 miles Calm Calm - N/A   Overcast
6:51 AM 28.4°F 26.6°F 93% 30.01 in 1.8 miles Calm Calm - N/A   Overcast
6:55 AM 28.9°F 27.0°F 92% 30.05 in 0.5 miles Calm Calm - N/A Fog Light Freezing Fog
7:05 AM 28.4°F 26.6°F 93% 30.01 in 0.2 miles Calm Calm - N/A Fog Light Freezing Fog
7:55 AM 28.9°F 27.0°F 92% 30.06 in 0.2 miles Calm Calm - N/A Fog Light Freezing Fog
8:07 AM 30.2°F 28.4°F 93% 30.02 in 0.5 miles Calm Calm - N/A Fog Light Freezing Fog
8:15 AM 30.2°F 28.4°F 93% 30.03 in 1.0 miles Calm Calm - N/A   Overcast
8:23 AM 30.2°F 28.4°F 93% 30.03 in 0.8 miles Calm Calm - N/A   Overcast
8:28 AM 30.2°F 28.4°F 93% 30.03 in 1.0 miles Calm Calm - N/A   Overcast
8:45 AM 30.2°F 28.4°F 93% 30.04 in 0.8 miles Calm Calm - N/A   Overcast
8:55 AM 30.0°F 27.0°F 88% 30.08 in 2.0 miles Calm Calm - N/A   Overcast
9:03 AM 30.2°F 28.4°F 93% 30.05 in 5.0 miles Calm Calm - N/A   Overcast
9:15 AM 30.2°F 28.4°F 93% 30.05 in 7.0 miles Calm Calm - N/A   Overcast
9:55 AM 30.0°F 28.0°F 92% 30.11 in 5.0 miles Calm Calm - N/A   Overcast
10:26 AM 30.2°F 28.4°F 93% 30.07 in 8.0 miles Calm Calm - N/A   Overcast
10:55 AM 32.0°F 30.0°F 92% 30.11 in 6.0 miles Calm Calm - N/A   Overcast
11:55 AM 33.1°F 28.9°F 85% 30.10 in 7.0 miles Calm Calm - N/A   Overcast
12:55 PM 33.1°F 28.9°F 85% 30.09 in 10.0 miles Calm Calm - N/A   Overcast
1:55 PM 33.1°F 28.9°F 85% 30.10 in 10.0 miles Calm Calm - N/A   Overcast
2:55 PM 34.0°F 27.0°F 75% 30.12 in 10.0 miles Calm Calm - N/A   Overcast
3:55 PM 32.0°F 27.0°F 82% 30.12 in 10.0 miles SE 4.6 mph - N/A   Overcast
4:55 PM 32.0°F 27.0°F 82% 30.13 in 10.0 miles SE 4.6 mph - N/A   Overcast
5:55 PM 32.0°F 27.0°F 82% 30.14 in 10.0 miles Calm Calm - N/A   Overcast
6:55 PM 30.9°F 27.0°F 85% 30.15 in 10.0 miles Calm Calm - N/A   Overcast
7:55 PM 30.9°F 27.0°F 85% 30.16 in 10.0 miles WSW 4.6 mph - N/A   Overcast
8:55 PM 30.0°F 26.1°F 85% 30.16 in 10.0 miles WSW 3.5 mph - N/A   Overcast
9:55 PM 30.0°F 26.1°F 85% 30.18 in 10.0 miles WSW 4.6 mph - N/A   Overcast
10:55 PM 30.0°F 26.1°F 85% 30.20 in 10.0 miles West 3.5 mph - N/A   Overcast
11:55 PM 30.0°F 26.1°F 85% 30.20 in 10.0 miles WNW 3.5 mph - N/A   Overcast
Moon Phase
Dec. 27 Dec. 28 Jan. 04 Jan. 11 Jan. 18
Sunrise:07:47 AM (PST) Moon Rise:04:07 PM (PST)
Sunset:04:16 PM (PST) Moon Set:07:00 AM (PST)

Copyright © 2014 The Weather Underground, Inc.